[[{"header":{"parameterUnit":"m.s-1","parameterCategory":1,"la1":30.2991,"la2":30.254,"lo1":-89.0895,"lo2":-89.0444,"dy":0.0017,"dx":0.0017,"nx":28,"ny":28,"refTime":"2025-05-19T09:00:00:Z","depth":0,"parameterNumber":2,"parameterNumberName":"U-component_of_WINDS"},"data":[0,0,0,0,0,0,0,0,0,0,0,0,0,0,0,0,0,0,0,0,0,0,0,0,0,0,0,0,0,0,0,0,0,0,0,0,0,0,0,0,0,0,0,0,0,0,0,0,0,0,0,0,0,0,0,0,0,0,4.1017,4.1019,0,4.1163,4.1164,4.1166,4.1126,4.1123,4.112,4.1117,4.127,4.1277,4.1283,0,0,0,0,0,0,0,0,0,0,0,0,0,4.0706,4.0712,4.1017,4.1019,4.1021,4.1163,4.1165,4.1167,4.1126,4.1122,4.1119,4.1115,4.1268,4.1276,4.1284,0,0,0,0,0,0,0,0,0,0,0,0,0,4.0846,4.0714,4.1017,4.1017,4.1019,4.1162,4.1165,4.1167,4.1127,4.1122,4.1118,4.1114,4.1265,4.1275,4.1285,4.1438,0,0,4.1317,4.1321,0,0,0,0,0,0,0,0,4.0838,4.0857,4.1016,4.1018,4.102,4.1121,4.1111,4.1258,4.1128,4.1086,4.1117,4.1112,4.1224,4.1238,4.1275,4.1445,4.1451,4.1317,4.1324,4.1328,4.1331,0,0,0,0,0,0,0,4.0828,4.0851,4.1075,4.1018,4.102,4.1011,4.1026,4.1139,4.1179,4.1089,4.1087,4.1104,4.1225,4.1265,4.1278,4.1454,4.1317,4.1326,4.1333,4.1337,4.1755,4.1759,0,0,0,0,0,0,4.0817,4.0843,4.107,4.1079,4.0916,4.1021,4.1037,4.1093,4.1177,4.1186,4.1108,4.1102,4.125,4.1266,4.1283,4.1466,4.1328,4.1338,4.1344,4.175,4.1756,4.1761,0,0,0,0,0,0,4.081,4.0837,4.1064,4.096,4.0989,4.1031,4.1094,4.1099,4.1139,4.1191,4.1198,4.1142,4.1247,4.1269,4.1399,4.1471,4.1342,4.1352,4.1744,4.1751,4.1758,4.1834,0,0,0,0,0,0,4.0801,4.0835,4.0893,4.0962,4.0994,4.1177,4.1098,4.1105,4.1156,4.115,4.1225,4.1233,4.1245,4.1384,4.1409,4.1483,4.136,4.1738,4.1747,4.1756,4.1825,4.1843,4.1858,0,0,0,0,0,4.079,4.091,4.0896,4.0924,4.1067,4.1181,4.12,4.121,4.1162,4.1221,4.1254,4.1231,4.1459,4.1398,4.1426,4.1504,4.1733,4.1744,4.1755,4.1818,4.184,4.1858,0,0,0,0,0,0,4.085,4.0919,4.0905,4.1049,4.1109,4.1174,4.1248,4.1233,4.1309,4.13,4.131,4.1328,4.146,4.1495,4.1425,4.1655,4.1589,4.1607,4.1627,4.1648,4.1664,4.1653,4.1368,0,0,0,0,0,4.0879,4.0965,4.1021,4.1144,4.1174,4.1206,4.1256,4.1259,4.1322,4.1348,4.1391,4.1454,4.1539,4.1596,4.1678,4.183,4.1846,4.1898,4.1914,4.1927,4.1942,4.2024,4.2047,4.1798,4.1797,4.1797,0,0,4.0942,4.0991,4.1044,4.1157,4.1204,4.1292,4.1228,4.1325,4.1391,4.1363,4.1487,4.1521,4.1592,4.1734,4.1798,4.1767,4.2015,4.1942,4.1952,4.1959,4.2038,4.2061,4.2082,4.1805,4.1804,4.1802,0,0,4.1102,4.1147,4.1253,4.1301,4.1372,4.1392,4.1418,4.1485,4.1505,4.163,4.161,4.169,4.1838,4.1889,4.1934,4.2111,4.2092,4.2138,4.2224,4.2304,4.2324,4.2341,4.2404,4.2426,4.2153,4.2153,4.2153,0,4.1171,4.1303,4.131,4.1409,4.1459,4.1435,4.1543,4.1589,4.1684,4.172,4.1683,4.1867,4.1913,4.2066,4.2108,4.2147,4.2176,4.2129,4.232,4.2338,4.2354,4.2414,4.2437,4.2158,4.2157,4.2157,4.2156,0,4.1384,4.1476,4.1554,4.1644,4.1703,4.1806,4.1829,4.1888,4.1885,4.1909,4.2036,4.2091,4.2183,4.2219,4.2219,4.2372,4.235,4.2317,4.2251,4.2383,4.2439,4.2462,4.2165,4.2163,4.2162,4.2161,0,0,4.1586,4.1677,4.1705,4.1745,4.1822,4.1893,4.1995,4.2083,4.2133,4.2199,4.2285,4.241,4.2379,4.2431,4.2435,4.2505,4.2641,4.2464,4.2465,4.2494,4.2812,4.2835,4.2862,4.2629,4.2633,4.2637,4.2805,0,4.1751,4.1928,4.1937,4.2098,4.2183,4.2161,4.225,4.2307,4.2332,4.2408,4.2437,4.2524,4.2478,4.2508,4.2577,4.261,4.2705,4.2598,4.2709,4.2712,4.269,4.2891,4.2917,4.3073,4.2827,4.2831,4.2834,0,4.1967,4.2038,4.2207,4.227,4.2306,4.2385,4.2466,4.2539,4.2603,4.2616,4.2673,4.2667,4.2772,4.2702,4.2847,4.2774,4.2819,4.2843,4.2849,4.2859,4.2781,4.2906,4.3124,4.3147,4.2869,4.2866,4.2864,0,4.2095,4.2233,4.2352,4.2387,4.2464,4.2519,4.2554,4.2613,4.2665,4.2737,4.2771,4.2854,4.2899,4.2964,4.2981,4.293,4.3125,4.3057,4.3139,4.3139,4.3181,4.3178,4.3408,4.3212,4.3212,4.3211,4.3211,0,4.2278,4.2383,4.241,4.2483,4.2599,4.2609,4.2724,4.2755,4.2808,4.2886,4.2874,4.2949,4.2967,4.3045,4.306,4.3176,4.3197,4.3211,4.3213,4.3212,4.321,4.3241,4.3231,4.3217,4.3216,4.3215,4.3214,0,4.2441,4.2464,4.2592,4.2653,4.2671,4.2753,4.2806,4.2877,4.2899,4.3,4.3024,4.3061,4.3152,4.3175,4.3285,4.3295,4.3432,4.3425,4.341,4.3409,4.3489,4.3481,4.3747,4.3782,4.3564,4.3566,4.3568,0,4.2556,4.2635,4.2704,4.2755,4.2792,4.2875,4.2928,4.294,4.2996,4.3073,4.3134,4.3224,4.3296,4.3443,4.348,4.3564,4.3558,4.3645,4.357,4.3566,4.3558,4.3552,4.356,4.3659,4.3662,4.3663,4.3665,0,4.2757,4.2764,4.2839,4.2919,4.2981,4.3045,4.3106,4.3149,4.317,4.3233,4.3325,4.3381,4.3492,4.358,4.3664,4.3701,4.3687,4.3688,4.3711,4.371,4.3697,4.3704,4.3447,4.3682,4.368,4.3679,4.3678,4.3677,4.2899,4.2967,4.3026,4.311,4.3157,4.3214,4.3282,4.3313,4.339,4.348,4.3483,4.3583,4.3644,4.3755,4.3797,4.3876,4.3849,4.3883,4.3892,4.3899,4.3906,4.3685,4.3891,4.3891,4.389,4.389,4.389,0,4.3098,4.3134,4.3211,4.3296,4.3362,4.3341,4.3407,4.3464,4.3552,4.361,4.368,4.3786,4.3872,4.3915,4.4,4.4055,4.4051,4.4077,4.4073,4.4081,4.3925,4.3896,4.4079,4.4079,4.4079,4.4079,4.4079,4.4079,4.3209,4.3324,4.3338,4.3475,4.3511,4.3608,4.3647,4.37,4.3745,4.3863,4.3934,4.3961,4.4013,4.4101,4.4179,4.419,4.4222,4.4251,4.4258,4.4112,4.4092,4.4074,4.4046,4.4258,4.4258,4.4408,4.4409,4.441]},{"header":{"parameterUnit":"m.s-1","parameterCategory":1,"la1":30.2991,"la2":30.254,"lo1":-89.0895,"lo2":-89.0444,"dy":0.0017,"dx":0.0017,"nx":28,"ny":28,"refTime":"2025-05-19T09:00:00:Z","depth":0,"parameterNumber":3,"parameterNumberName":"V-component_of_WINDS"},"data":[0,0,0,0,0,0,0,0,0,0,0,0,0,0,0,0,0,0,0,0,0,0,0,0,0,0,0,0,0,0,0,0,0,0,0,0,0,0,0,0,0,0,0,0,0,0,0,0,0,0,0,0,0,0,0,0,0,0,2.1349,2.135,0,2.1412,2.1413,2.1414,2.1406,2.1405,2.1404,2.1403,2.1467,2.1469,2.1472,0,0,0,0,0,0,0,0,0,0,0,0,0,2.1222,2.1224,2.1349,2.135,2.1351,2.1412,2.1413,2.1414,2.1407,2.1405,2.1404,2.1403,2.1466,2.1469,2.1472,0,0,0,0,0,0,0,0,0,0,0,0,0,2.128,2.1225,2.1349,2.1355,2.1356,2.1412,2.1413,2.1414,2.1407,2.1405,2.1404,2.1402,2.1465,2.1469,2.1473,2.1527,0,0,2.1485,2.1486,0,0,0,0,0,0,0,0,2.1277,2.1285,2.1353,2.1354,2.1356,2.14,2.1391,2.1452,2.1407,2.1387,2.1403,2.1402,2.1446,2.1451,2.1466,2.153,2.1533,2.1485,2.1487,2.1489,2.149,0,0,0,0,0,0,0,2.1273,2.1282,2.1374,2.1354,2.1356,2.1354,2.136,2.1403,2.1424,2.1389,2.1389,2.1396,2.1446,2.1462,2.1468,2.1534,2.1485,2.1488,2.1491,2.1492,2.1645,2.1646,0,0,0,0,0,0,2.1268,2.1279,2.1372,2.1376,2.1312,2.1357,2.1365,2.1387,2.1424,2.1428,2.1397,2.1396,2.1456,2.1463,2.147,2.1536,2.1489,2.1493,2.1495,2.1643,2.1645,2.1647,0,0,0,0,0,0,2.1265,2.1276,2.137,2.1327,2.1339,2.1361,2.1387,2.1389,2.1406,2.143,2.1434,2.141,2.1456,2.1464,2.1513,2.1538,2.1495,2.1498,2.1641,2.1644,2.1646,2.1668,0,0,0,0,0,0,2.1261,2.1275,2.1296,2.1328,2.1341,2.1412,2.1388,2.1392,2.1413,2.1411,2.1443,2.1447,2.1455,2.1507,2.1517,2.1543,2.1501,2.1639,2.1642,2.1645,2.1666,2.1671,2.1676,0,0,0,0,0,2.1257,2.13,2.1297,2.1309,2.1369,2.1414,2.1421,2.143,2.1415,2.1436,2.1452,2.1446,2.1533,2.1512,2.1523,2.155,2.1637,2.1641,2.1645,2.1663,2.167,2.1676,0,0,0,0,0,0,2.1271,2.1304,2.1302,2.1357,2.1382,2.1412,2.144,2.1437,2.1468,2.1465,2.1474,2.1481,2.153,2.1545,2.152,2.1605,2.1583,2.1589,2.1593,2.16,2.1606,2.1601,2.1504,0,0,0,0,0,2.128,2.1314,2.1342,2.1388,2.1401,2.1418,2.1438,2.1442,2.1469,2.148,2.1499,2.1525,2.1558,2.158,2.1612,2.1667,2.1674,2.1691,2.1697,2.1701,2.1707,2.1737,2.1745,2.1659,2.1659,2.1659,0,0,2.13,2.1323,2.1344,2.1391,2.1411,2.1446,2.1427,2.1465,2.1491,2.1485,2.1533,2.1547,2.1577,2.1629,2.1653,2.1643,2.1732,2.1706,2.1709,2.1712,2.1742,2.175,2.1757,2.1662,2.1661,2.1661,0,0,2.1355,2.1375,2.1416,2.1436,2.1467,2.1479,2.1488,2.1518,2.1528,2.1576,2.1572,2.1603,2.166,2.1681,2.1699,2.1761,2.1757,2.1771,2.1799,2.1829,2.1835,2.1841,2.1864,2.1871,2.1776,2.1776,2.1776,0,2.1375,2.1428,2.1436,2.1475,2.1495,2.1492,2.1533,2.1552,2.1592,2.1606,2.1594,2.1666,2.1686,2.1743,2.1758,2.1772,2.1783,2.1768,2.1834,2.184,2.1846,2.1867,2.1875,2.1777,2.1777,2.1777,2.1777,0,2.1452,2.1489,2.1518,2.1557,2.158,2.162,2.1633,2.1656,2.1658,2.167,2.1718,2.1742,2.1778,2.1792,2.1794,2.1849,2.1842,2.1832,2.1811,2.1855,2.1875,2.1883,2.178,2.1779,2.1779,2.1778,0,0,2.1518,2.1561,2.1571,2.1589,2.1622,2.165,2.1689,2.1725,2.1745,2.1772,2.1804,2.1852,2.1843,2.1864,2.1868,2.1894,2.1941,2.1881,2.1882,2.1892,2.2003,2.2011,2.202,2.1938,2.194,2.1941,2.2001,0,2.1576,2.1645,2.1653,2.1715,2.1748,2.1745,2.1779,2.1803,2.1815,2.1845,2.1858,2.1892,2.1878,2.189,2.1915,2.193,2.1964,2.1926,2.1969,2.197,2.1962,2.2031,2.2039,2.2094,2.2009,2.201,2.2011,0,2.1653,2.1683,2.1747,2.1776,2.1791,2.1821,2.1854,2.1883,2.191,2.1917,2.194,2.1941,2.198,2.1957,2.2011,2.1985,2.2003,2.2013,2.2015,2.202,2.1994,2.2038,2.2112,2.212,2.2023,2.2022,2.2021,0,2.1695,2.1751,2.1797,2.1812,2.1846,2.1868,2.1883,2.1908,2.1929,2.1958,2.1972,2.2005,2.2023,2.2048,2.2058,2.204,2.2112,2.2089,2.2119,2.2118,2.2134,2.2133,2.2213,2.2145,2.2145,2.2145,2.2145,0,2.1759,2.1798,2.1816,2.1844,2.1888,2.1897,2.194,2.1955,2.1977,2.2008,2.2007,2.2036,2.2047,2.2077,2.2085,2.2128,2.2137,2.2143,2.2145,2.2144,2.2143,2.2156,2.2152,2.2147,2.2147,2.2146,2.2146,0,2.1813,2.1826,2.1876,2.1905,2.1913,2.1944,2.1968,2.1996,2.2007,2.2046,2.2055,2.2073,2.2109,2.2121,2.2164,2.2169,2.2221,2.2219,2.2212,2.2212,2.2241,2.2238,2.2332,2.2345,2.2268,2.2269,2.2269,0,2.1853,2.1884,2.1916,2.1936,2.1952,2.1986,2.2007,2.2016,2.2038,2.2071,2.2094,2.213,2.2159,2.2216,2.2232,2.2265,2.2264,2.2295,2.2269,2.2267,2.2265,2.2263,2.2267,2.23,2.2301,2.2301,2.2302,0,2.1923,2.1928,2.1959,2.1993,2.2018,2.2045,2.207,2.2087,2.21,2.2125,2.2162,2.2184,2.2228,2.2263,2.2297,2.2312,2.2309,2.231,2.2318,2.2318,2.2312,2.2316,2.2225,2.2308,2.2307,2.2307,2.2306,2.2306,2.1972,2.1999,2.2025,2.206,2.208,2.2104,2.2131,2.2146,2.2177,2.2213,2.2217,2.2256,2.2282,2.2326,2.2343,2.2374,2.2365,2.2378,2.2381,2.2384,2.2386,2.2307,2.238,2.238,2.238,2.238,2.2379,0,2.2042,2.2059,2.209,2.2127,2.2154,2.2149,2.2177,2.2199,2.2234,2.2258,2.2287,2.2329,2.2363,2.2382,2.2416,2.2437,2.2436,2.2445,2.2444,2.2448,2.2392,2.2381,2.2445,2.2445,2.2445,2.2445,2.2445,2.2445,2.2082,2.2127,2.2135,2.219,2.2207,2.2246,2.2262,2.2284,2.2303,2.235,2.2378,2.2391,2.2413,2.2448,2.2479,2.2484,2.2496,2.2506,2.251,2.2458,2.2451,2.2445,2.2435,2.2509,2.2509,2.2563,2.2564,2.2564]}]]